FW0428 Weather Reports


Display with metric or nautical units.
time (UTC)temp
F
wind
direction
speed
MPH
gust
MPH
rain 1hr
in
rain 24hr
in
rain mn
in
humidity
%
barometer
mb
20260902173114 88 250 2.0 7.0 0.00 0.00 0.00 62 1012.4
20260902171515 87 269 3.0 9.0 0.00 0.00 0.00 63 1012.6
20260902161632 84 268 3.0 6.0 0.00 0.00 0.00 72 1013.7
20260902160156 84 286 2.0 6.0 0.00 0.00 0.00 74 1013.6
20260902154652 84 288 2.0 5.0 0.00 0.00 0.00 76 1013.6
20260902153109 84 258 3.0 6.0 0.00 0.00 0.00 75 1013.5
20260902151636 83 237 2.0 4.0 0.00 0.00 0.00 76 1013.5
20260902150117 83 220 1.0 6.0 0.00 0.00 0.00 76 1013.5
20260902143152 83 272 1.0 5.0 0.00 0.00 0.00 78 1013.6
20260902131632 78 273 1.0 3.0 0.00 0.00 0.00 87 1013.4
20260902123054 76 253 1.0 3.0 0.00 0.00 0.00 89 1013.4
20260902121550 76 255 1.0 4.0 0.00 0.00 0.00 89 1013.3
20260902111522 76 254 0.0 2.0 0.00 0.00 0.00 86 1013.1
20260902094612 77 285 0.0 2.0 0.00 0.00 0.00 83 1012.9
20260902093132 78 275 0.0 2.0 0.00 0.00 0.00 82 1012.9
20260902083155 79 271 0.0 1.0 0.00 0.00 0.00 79 1012.9
20260902081621 79 275 0.0 2.0 0.00 0.00 0.00 78 1013.0
20260902080138 79 263 0.0 0.0 0.00 0.00 0.00 77 1013.1
20260902074608 79 273 0.0 0.0 0.00 0.00 0.00 76 1013.2
20260902073138 79 273 0.0 0.0 0.00 0.00 0.00 75 1013.4
20260902071548 80 273 0.0 0.0 0.00 0.00 0.00 74 1013.3
20260902070108 80 273 0.0 0.0 0.00 0.00 0.00 73 1013.3
20260902064518 80 273 0.0 0.0 0.00 0.00 0.00 73 1013.3
20260902063053 81 282 0.0 0.0 0.00 0.00 0.00 72 1013.3
20260902061512 81 277 0.0 0.0 0.00 0.00 0.00 71 1013.4
20260902060110 82 272 0.0 1.0 0.00 0.00 0.00 70 1013.2
20260902054538 82 279 0.0 1.0 0.00 0.00 0.00 70 1013.3
20260902053107 82 275 0.0 2.0 0.00 0.00 0.00 69 1013.3
20260902051514 83 278 0.0 2.0 0.00 0.00 0.00 68 1013.3
20260902034542 85 277 0.0 2.0 0.00 0.00 0.00 65 1013.2
20260902033052 85 273 0.0 2.0 0.00 0.00 0.00 65 1013.2
20260902031537 85 275 0.0 2.0 0.00 0.00 0.00 65 1013.1
20260902024511 86 281 0.0 2.0 0.00 0.00 0.00 65 1012.7
20260902023107 86 279 0.0 2.0 0.00 0.00 0.00 64 1012.4
20260902021635 86 277 0.0 1.0 0.00 0.00 0.00 63 1012.2
20260902014517 87 264 0.0 3.0 0.00 0.00 0.00 62 1011.9
20260902010145 89 250 0.0 2.0 0.00 0.00 0.00 60 1011.9
20260902001632 94 290 0.0 3.0 0.00 0.00 0.00 44 1010.9
20260902000149 95 271 1.0 6.0 0.00 0.00 0.00 43 1010.8
20260901233014 96 271 1.0 5.0 0.00 0.00 0.00 41 1010.8
20260901221637 97 281 2.0 5.0 0.00 0.00 0.00 42 1011.0
20260901201519 97 309 1.0 4.0 0.00 0.00 0.00 44 1012.4